Find Kosmos-621

NORAD ID: 6989 Int'l Des: 1973-104 Owner: GUKOSR Country: SU operational
LEOCIRCULAR

リアルタイム位置

3D地球を読み込み中...

Kosmos-621について

説明を読み込み中...

次回通過

Passes for default location (London). Set your location on the main map for personalized predictions.

高度履歴

Loading altitude history...

軌道要素

1 6989U 73104E 26105.23010669 -.00000016 00000-0 25879-5 0 9992
2 6989 74.0302 190.5222 0050865 300.1574 88.3931 12.54676077396369
Epoch: Apr 15, 2026 • Age: 5 hours

現在のステータス

高度 1443.7 km
速度 7.15 km/s
衛星直下点 -64.35°S, 45.12°E
タイプ other

Most Searched